N8DMH-13 Weather Reports


time (UTC)temp
F
wind
direction
speed
knots
gust
knots
rain 1hr
in
rain 24hr
in
rain mn
in
humidity
%
barometer
mb
20260507205404 50 270 4.3 7.8 0.00 0.00 0.00 39 1011.0
20260507204904 50 248 4.3 9.6 0.00 0.00 0.00 39 1011.1
20260507204403 50 225 3.5 8.7 0.00 0.00 0.00 42 1011.0
20260507203849 50 270 3.5 7.0 0.00 0.00 0.00 42 1011.1
20260507203303 50 248 3.5 8.7 0.00 0.00 0.00 42 1011.0
20260507202733 50 248 4.3 7.0 0.00 0.00 0.00 40 1011.0
20260507202203 50 248 2.6 7.0 0.00 0.00 0.00 40 1011.1
20260507201633 50 248 4.3 7.8 0.00 0.00 0.00 40 1011.2
20260507201133 50 248 4.3 7.0 0.00 0.00 0.00 41 1011.2
20260507200605 50 270 1.7 5.2 0.00 0.00 0.00 43 1011.2
20260507195533 49 270 2.6 5.2 0.00 0.00 0.00 44 1011.4
20260507195002 49 270 1.7 5.2 0.00 0.00 0.00 46 1011.4
20260507194502 49 270 1.7 6.1 0.00 0.00 0.00 44 1011.4
20260507193932 49 248 4.3 8.7 0.00 0.00 0.00 46 1011.5
20260507193402 49 248 3.5 7.0 0.00 0.00 0.00 45 1011.5
20260507192902 49 248 2.6 6.1 0.00 0.00 0.00 45 1011.6
20260507192402 49 248 2.6 5.2 0.00 0.00 0.00 45 1011.6
20260507191832 48 248 2.6 6.1 0.00 0.00 0.00 46 1011.6
20260507191332 48 248 3.5 7.8 0.00 0.00 0.00 46 1011.7
20260507190802 48 248 2.6 5.2 0.00 0.00 0.00 46 1011.6
20260507190302 48 248 1.7 4.3 0.00 0.00 0.00 47 1011.7
20260507185732 48 225 2.6 5.2 0.00 0.00 0.00 47 1011.7
20260507185248 48 248 3.5 8.7 0.00 0.00 0.00 47 1011.7
20260507185202 48 248 3.5 8.7 0.00 0.00 0.00 47 1011.7
20260507184631 48 225 2.6 6.1 0.00 0.00 0.00 47 1011.7
20260507184101 48 225 3.5 7.8 0.00 0.00 0.00 47 1011.7
20260507183601 49 225 1.7 3.5 0.00 0.00 0.00 50 1011.7
20260507183101 48 248 1.7 5.2 0.00 0.00 0.00 48 1011.8
20260507182601 48 248 3.5 7.8 0.00 0.00 0.00 48 1011.9
20260507182031 48 248 1.7 3.5 0.00 0.00 0.00 50 1011.9
20260507181531 48 270 1.7 4.3 0.00 0.00 0.00 47 1011.9
20260507181031 48 270 1.7 6.1 0.00 0.00 0.00 48 1012.0
20260507180500 47 225 3.5 7.8 0.00 0.00 0.00 48 1012.2
20260507180000 47 248 3.5 8.7 0.00 0.00 0.00 47 1012.1
20260507175430 48 248 2.6 6.1 0.00 0.00 0.00 48 1012.2
20260507174901 47 225 1.7 3.5 0.00 0.00 0.00 49 1012.2
20260507174330 47 248 3.5 7.0 0.00 0.00 0.00 48 1012.1
20260507173800 46 270 2.6 7.0 0.00 0.00 0.00 49 1012.4
20260507173300 46 248 4.3 8.7 0.00 0.00 0.00 49 1012.5
20260507172730 46 225 4.3 9.6 0.00 0.00 0.00 48 1012.5
20260507172200 47 248 3.5 7.0 0.00 0.00 0.00 48 1012.6
20260507171659 47 270 3.5 7.0 0.00 0.00 0.00 47 1012.7
20260507171159 47 248 3.5 7.0 0.00 0.00 0.00 47 1012.6
20260507170659 47 270 3.5 7.0 0.00 0.00 0.00 46 1012.7
20260507170130 46 248 3.5 7.0 0.00 0.00 0.00 47 1012.9
20260507165629 46 248 3.5 7.0 0.00 0.00 0.00 48 1012.9
20260507165059 47 248 3.5 8.7 0.00 0.00 0.00 47 1012.9
20260507164559 47 248 2.6 6.1 0.00 0.00 0.00 47 1012.9
20260507164059 47 248 2.6 6.1 0.00 0.00 0.00 47 1012.9
20260507163559 47 248 2.6 5.2 0.00 0.00 0.00 47 1012.8
20260507163028 46 270 3.5 7.0 0.00 0.00 0.00 47 1012.9
20260507162529 46 225 4.3 7.8 0.00 0.00 0.00 47 1013.0
20260507161958 47 248 4.3 9.6 0.00 0.00 0.00 46 1013.0
20260507161458 47 248 4.3 7.0 0.00 0.00 0.00 48 1013.1
20260507160928 46 248 3.5 7.0 0.00 0.00 0.00 49 1013.1
20260507160428 46 270 4.3 7.0 0.00 0.00 0.00 48 1013.1
20260507155858 46 248 4.3 8.7 0.00 0.00 0.00 48 1013.2
20260507155358 47 225 2.6 6.1 0.00 0.00 0.00 49 1013.1
20260507154858 47 248 2.6 6.1 0.00 0.00 0.00 49 1013.1
20260507154328 46 248 4.3 8.7 0.00 0.00 0.00 48 1013.1
20260507153758 46 248 3.5 7.0 0.00 0.00 0.00 51 1013.1
20260507152728 46 248 4.3 8.7 0.00 0.00 0.00 48 1013.2
20260507152227 46 248 4.3 8.7 0.00 0.00 0.00 51 1013.2
20260507151727 46 248 3.5 7.0 0.00 0.00 0.00 54 1013.3
20260507151159 46 248 3.5 5.2 0.00 0.00 0.00 55 1013.2
20260507150657 46 248 3.5 7.0 0.00 0.00 0.00 55 1013.2
20260507150127 46 248 2.6 6.1 0.00 0.00 0.00 54 1013.3
20260507145627 45 248 4.3 7.8 0.00 0.00 0.00 53 1013.3
20260507145057 45 248 2.6 6.1 0.00 0.00 0.00 55 1013.3
20260507144557 45 248 2.6 5.2 0.00 0.00 0.00 56 1013.3
20260507144057 45 225 1.7 5.2 0.00 0.00 0.00 58 1013.3
20260507143527 45 248 2.6 6.1 0.00 0.00 0.00 56 1013.4
20260507143026 45 248 4.3 6.1 0.00 0.00 0.00 55 1013.4
20260507142526 45 248 2.6 6.1 0.00 0.00 0.00 57 1013.5
20260507141956 45 225 3.5 8.7 0.00 0.00 0.00 55 1013.5
20260507141456 45 248 2.6 6.1 0.00 0.00 0.00 55 1013.4
20260507140926 45 248 1.7 5.2 0.00 0.00 0.00 56 1013.5
20260507140426 45 248 2.6 6.1 0.00 0.00 0.00 58 1013.6
20260507135856 45 270 4.3 9.6 0.00 0.00 0.00 57 1013.4
20260507135357 45 248 4.3 7.0 0.00 0.00 0.00 57 1013.4
20260507134826 45 270 3.5 7.0 0.00 0.00 0.00 59 1013.5
20260507134326 45 248 1.7 4.3 0.00 0.00 0.00 59 1013.5
20260507133755 45 248 3.5 7.8 0.00 0.00 0.00 61 1013.6
20260507133256 45 248 3.5 7.0 0.00 0.00 0.00 62 1013.5
20260507132755 45 248 3.5 6.1 0.00 0.00 0.00 63 1013.4
20260507132225 44 225 3.5 6.1 0.00 0.00 0.00 63 1013.4
20260507131725 44 248 3.5 7.0 0.00 0.00 0.00 59 1013.5
20260507131225 44 248 2.6 5.2 0.00 0.00 0.00 65 1013.6
20260507130725 43 248 2.6 6.1 0.00 0.00 0.00 65 1013.5
20260507130155 43 248 2.6 6.1 0.00 0.00 0.00 68 1013.5
20260507125625 43 270 2.6 6.1 0.00 0.00 0.00 69 1013.5
20260507125055 42 248 2.6 6.1 0.00 0.00 0.00 70 1013.6
20260507124555 42 270 3.5 6.1 0.00 0.00 0.00 70 1013.5
20260507124054 42 270 2.6 7.0 0.00 0.00 0.00 71 1013.3
20260507123554 42 248 2.6 5.2 0.00 0.00 0.00 71 1013.3
20260507123024 41 248 2.6 6.1 0.00 0.00 0.00 74 1013.3
20260507122525 41 248 2.6 4.3 0.00 0.00 0.00 75 1013.5
20260507121954 40 270 1.7 4.3 0.00 0.00 0.00 76 1013.4
20260507121454 40 248 0.9 4.3 0.00 0.00 0.00 77 1013.4
20260507120955 39 270 1.7 3.5 0.00 0.00 0.00 77 1013.4
20260507120456 39 248 0.9 4.3 0.00 0.00 0.00 78 1013.4
20260507115354 38 248 0.9 1.7 0.00 0.00 0.00 80 1013.1
20260507114853 37 248 0.9 2.6 0.00 0.00 0.00 82 1013.1
20260507114324 37 248 0.9 1.7 0.00 0.00 0.00 82 1013.0
20260507113753 36 0 0.0 0.9 0.00 0.00 0.00 84 1013.2
20260507113253 35 0 0.0 0.9 0.00 0.00 0.00 85 1013.0
20260507112724 35 0 0.0 0.9 0.00 0.00 0.00 85 1012.9
20260507112153 34 0 0.0 0.9 0.00 0.00 0.00 85 1012.8
20260507111653 34 0 0.0 0.0 0.00 0.00 0.00 86 1012.9
20260507111123 34 0 0.0 0.0 0.00 0.00 0.00 87 1012.8
20260507110552 33 0 0.0 0.0 0.00 0.00 0.00 87 1012.9
20260507110052 32 0 0.0 0.0 0.00 0.00 0.00 87 1012.8
20260507105552 32 0 0.0 0.0 0.00 0.00 0.00 85 1012.7
20260507105052 33 0 0.0 0.0 0.00 0.00 0.00 86 1012.7
20260507104522 33 0 0.0 0.0 0.00 0.00 0.00 85 1012.7
20260507103952 33 0 0.0 0.0 0.00 0.00 0.00 85 1012.6
20260507103452 34 0 0.0 0.9 0.00 0.00 0.00 85 1012.6
20260507102922 34 0 0.0 0.9 0.00 0.00 0.00 84 1012.6
20260507102352 34 0 0.0 0.9 0.00 0.00 0.00 85 1012.6
20260507101852 34 0 0.0 1.7 0.00 0.00 0.00 86 1012.7
20260507101323 33 0 0.0 0.0 0.00 0.00 0.00 86 1012.6
20260507100822 33 0 0.0 0.0 0.00 0.00 0.00 86 1012.7
20260507100251 33 0 0.0 0.0 0.00 0.00 0.00 86 1012.6
20260507095751 34 0 0.0 0.0 0.00 0.00 0.00 85 1012.6
20260507095221 34 0 0.0 0.9 0.00 0.00 0.00 85 1012.7
20260507094721 34 0 0.0 0.0 0.00 0.00 0.00 85 1012.7
20260507094151 34 0 0.0 1.7 0.00 0.00 0.00 87 1012.7
20260507093651 33 0 0.0 0.0 0.00 0.00 0.00 85 1012.8
20260507093121 33 0 0.0 0.0 0.00 0.00 0.00 85 1012.7
20260507092621 34 0 0.0 0.0 0.00 0.00 0.00 84 1012.7
20260507092051 34 0 0.0 0.0 0.00 0.00 0.00 84 1012.8
20260507091551 34 0 0.0 0.0 0.00 0.00 0.00 84 1012.7
20260507091051 34 0 0.0 0.0 0.00 0.00 0.00 84 1012.8
20260507090550 35 0 0.0 0.0 0.00 0.00 0.00 83 1012.8
20260507090050 35 0 0.0 0.0 0.00 0.00 0.00 83 1012.8
20260507085520 36 0 0.0 0.0 0.00 0.00 0.00 82 1012.8
20260507084950 36 0 0.0 0.0 0.00 0.00 0.00 82 1012.8
20260507084450 36 0 0.0 0.0 0.00 0.00 0.00 82 1012.8
20260507083950 36 0 0.0 1.7 0.00 0.00 0.00 83 1012.8
20260507083450 36 0 0.0 0.0 0.00 0.00 0.00 82 1012.9
20260507082920 36 0 0.0 0.0 0.00 0.00 0.00 82 1012.9
20260507082420 36 0 0.0 0.0 0.00 0.00 0.00 81 1012.9
20260507081922 37 0 0.0 0.0 0.00 0.00 0.00 81 1013.1
20260507081350 37 0 0.0 0.0 0.00 0.00 0.00 80 1013.0
20260507080850 38 0 0.0 0.0 0.00 0.00 0.00 80 1013.0
20260507080320 38 0 0.0 0.9 0.00 0.00 0.00 80 1013.0
20260507075819 38 0 0.0 0.9 0.00 0.00 0.00 80 1013.0
20260507075319 38 0 0.0 1.7 0.00 0.00 0.00 80 1013.1
20260507074749 38 0 0.0 0.9 0.00 0.00 0.00 80 1013.1
20260507074219 38 0 0.0 0.9 0.00 0.00 0.00 80 1013.2
20260507073719 38 0 0.0 1.7 0.00 0.00 0.00 81 1013.2
20260507073149 37 0 0.0 0.0 0.00 0.00 0.00 80 1013.3
20260507072619 37 0 0.0 0.0 0.00 0.00 0.00 80 1013.3
20260507072119 38 0 0.0 0.0 0.00 0.00 0.00 79 1013.2
20260507071619 38 0 0.0 0.0 0.00 0.00 0.00 78 1013.3
20260507071049 38 0 0.0 0.0 0.00 0.00 0.00 78 1013.3
20260507070518 38 0 0.0 0.0 0.00 0.00 0.00 77 1013.3
20260507070019 38 0 0.0 0.0 0.00 0.00 0.00 77 1013.4
20260507065448 38 0 0.0 0.9 0.00 0.00 0.00 77 1013.5
20260507064948 38 0 0.0 0.0 0.00 0.00 0.00 76 1013.5
20260507064448 38 0 0.0 0.0 0.00 0.00 0.00 75 1013.5
20260507063948 39 0 0.0 0.9 0.00 0.00 0.00 75 1013.5
20260507063418 39 0 0.0 0.9 0.00 0.00 0.00 75 1013.6
20260507062918 39 0 0.0 0.9 0.00 0.00 0.00 74 1013.7
20260507062417 39 0 0.0 0.9 0.00 0.00 0.00 74 1013.7
20260507061848 39 0 0.0 0.9 0.00 0.00 0.00 73 1013.7
20260507061347 39 0 0.0 0.9 0.00 0.00 0.00 73 1013.8
20260507060817 39 0 0.0 0.9 0.00 0.00 0.00 73 1013.7
20260507060250 40 0 0.0 0.9 0.00 0.00 0.00 73 1013.8
20260507055748 40 0 0.0 1.7 0.00 0.00 0.00 73 1013.8
20260507055217 40 0 0.0 0.9 0.00 0.00 0.00 73 1013.8
20260507054647 40 0 0.0 1.7 0.00 0.00 0.00 72 1013.9
20260507054117 40 0 0.0 0.9 0.00 0.00 0.00 73 1013.8
20260507053617 40 0 0.0 0.9 0.00 0.00 0.00 72 1013.7
20260507053117 40 0 0.0 0.9 0.00 0.00 0.00 73 1013.9
20260507052546 40 0 0.0 0.0 0.00 0.00 0.00 72 1013.9
20260507052046 40 0 0.0 0.9 0.00 0.00 0.00 73 1013.9
20260507051546 40 0 0.0 1.7 0.00 0.00 0.00 72 1014.0
20260507051016 40 270 0.9 2.6 0.00 0.00 0.00 72 1014.1
20260507050516 40 0 0.0 2.6 0.00 0.00 0.00 72 1014.1
20260507045946 40 0 0.0 0.0 0.00 0.00 0.00 70 1014.1
20260507045446 40 0 0.0 0.9 0.00 0.00 0.00 70 1014.0
20260507044946 40 0 0.0 0.0 0.00 0.00 0.00 70 1014.0
20260507044416 40 0 0.0 0.0 0.00 0.00 0.00 69 1014.0
20260507043916 40 0 0.0 0.0 0.00 0.00 0.00 69 1014.0
20260507043345 40 0 0.0 0.0 0.00 0.00 0.00 69 1014.1
20260507042849 40 0 0.0 0.0 0.00 0.00 0.00 68 1014.0
20260507042345 40 0 0.0 0.0 0.00 0.00 0.00 68 1014.1
20260507041815 40 0 0.0 0.0 0.00 0.00 0.00 68 1014.1
20260507041316 40 0 0.0 0.9 0.00 0.00 0.00 68 1014.2
20260507040745 40 0 0.0 0.0 0.00 0.00 0.00 69 1014.2
20260507040246 40 0 0.0 0.0 0.00 0.00 0.00 69 1014.1
20260507035745 40 0 0.0 0.0 0.00 0.00 0.00 69 1014.3
20260507035215 40 0 0.0 0.9 0.00 0.00 0.00 70 1014.2
20260507034644 40 0 0.0 0.9 0.00 0.00 0.00 70 1014.2
20260507034144 40 0 0.0 0.0 0.00 0.00 0.00 71 1014.2
20260507033614 40 0 0.0 0.0 0.00 0.00 0.00 70 1014.2
20260507033044 40 0 0.0 0.0 0.00 0.00 0.00 70 1014.2
20260507032544 40 0 0.0 0.0 0.00 0.00 0.00 69 1014.3
20260507032044 40 0 0.0 0.0 0.00 0.00 0.00 69 1014.3
20260507031514 40 0 0.0 0.0 0.00 0.00 0.00 70 1014.3
20260507031014 39 0 0.0 0.0 0.00 0.00 0.00 70 1014.3
20260507030444 39 0 0.0 0.0 0.00 0.00 0.00 70 1014.4
20260507025913 40 0 0.0 0.0 0.00 0.00 0.00 70 1014.4
20260507025413 40 0 0.0 0.0 0.00 0.00 0.00 70 1014.4
20260507024843 40 0 0.0 0.0 0.00 0.00 0.00 71 1014.3
20260507024343 40 0 0.0 0.0 0.00 0.00 0.00 70 1014.4
20260507023815 40 0 0.0 0.0 0.00 0.00 0.00 70 1014.3
20260507023243 40 0 0.0 0.0 0.00 0.00 0.00 70 1014.3
20260507022743 40 0 0.0 0.0 0.00 0.00 0.00 70 1014.3
20260507022213 40 0 0.0 0.9 0.00 0.00 0.00 71 1014.3
20260507021643 40 0 0.0 0.0 0.00 0.00 0.00 71 1014.2
20260507021113 40 0 0.0 0.9 0.00 0.00 0.00 71 1014.2
20260507020613 40 0 0.0 0.0 0.00 0.00 0.00 71 1014.2
20260507020112 40 0 0.0 0.9 0.00 0.00 0.00 71 1014.2
20260507015542 40 0 0.0 0.9 0.00 0.00 0.00 71 1014.1
20260507015042 39 0 0.0 0.9 0.00 0.00 0.00 71 1014.1
20260507014512 39 0 0.0 0.9 0.00 0.00 0.00 71 1014.1
20260507014012 39 0 0.0 0.0 0.00 0.00 0.00 71 1014.0
20260507013442 39 0 0.0 0.9 0.00 0.00 0.00 71 1014.0
20260507012912 39 0 0.0 0.9 0.00 0.00 0.00 71 1013.8
20260507012412 39 0 0.0 0.9 0.00 0.00 0.00 71 1013.7
20260507011842 39 0 0.0 0.9 0.00 0.00 0.00 70 1013.8
20260507011344 39 0 0.0 0.9 0.00 0.00 0.00 70 1013.8
20260507010811 40 0 0.0 0.9 0.00 0.00 0.00 69 1013.7
20260507010311 40 0 0.0 0.9 0.00 0.00 0.00 68 1013.7
20260507005741 40 0 0.0 0.9 0.00 0.00 0.00 67 1013.7
20260507005241 40 0 0.0 0.9 0.00 0.00 0.00 66 1013.7
20260507004711 41 0 0.0 0.9 0.00 0.00 0.00 65 1013.5
20260507004211 41 0 0.0 0.9 0.00 0.00 0.00 64 1013.4
20260507003711 41 0 0.0 0.9 0.00 0.00 0.00 64 1013.3
20260507003141 42 0 0.0 1.7 0.00 0.00 0.00 63 1013.3
20260507002641 42 112 0.9 1.7 0.00 0.00 0.00 63 1013.3
20260507002110 42 68 0.9 2.6 0.00 0.00 0.00 63 1013.3
20260507001541 42 0 0.0 1.7 0.00 0.00 0.00 63 1013.3
20260507001040 43 90 0.9 2.6 0.00 0.00 0.00 61 1013.2
20260507000512 43 112 0.9 3.5 0.00 0.00 0.00 60 1013.2
20260507000010 43 45 1.7 5.2 0.00 0.00 0.00 59 1013.2
20260506235510 43 68 0.9 4.3 0.00 0.00 0.00 61 1013.1
20260506234940 43 68 0.9 4.3 0.00 0.00 0.00 61 1013.1
20260506234410 43 90 0.9 3.5 0.00 0.00 0.00 61 1013.2
20260506233911 42 90 0.9 4.3 0.00 0.00 0.00 61 1013.2
20260506233342 43 90 0.9 4.3 0.00 0.00 0.00 61 1013.3
20260506232840 42 112 0.9 4.3 0.00 0.00 0.00 63 1013.2
20260506232310 42 90 0.9 3.5 0.00 0.00 0.00 63 1013.0
20260506231809 42 112 0.9 3.5 0.00 0.00 0.00 63 1013.0
20260506231239 42 112 1.7 3.5 0.00 0.00 0.00 63 1013.1
20260506230709 43 112 1.7 2.6 0.00 0.00 0.00 63 1013.1
20260506230209 43 112 1.7 5.2 0.00 0.00 0.00 62 1013.1
20260506225639 43 90 0.9 3.5 0.00 0.00 0.00 63 1013.2
20260506225109 43 90 0.9 2.6 0.00 0.00 0.00 64 1013.1
20260506224609 43 90 1.7 7.0 0.00 0.00 0.00 64 1013.1
20260506224039 43 135 1.7 5.2 0.00 0.00 0.00 63 1013.2
20260506223540 43 112 1.7 6.1 0.00 0.00 0.00 62 1013.2
20260506223038 44 112 1.7 3.5 0.00 0.00 0.00 62 1013.2
20260506222508 44 135 0.9 3.5 0.00 0.00 0.00 63 1013.1
20260506221938 44 112 1.7 3.5 0.00 0.00 0.00 62 1013.1
20260506221438 44 45 2.6 7.0 0.00 0.00 0.00 61 1012.9
20260506220938 44 45 0.9 4.3 0.00 0.00 0.00 63 1012.8
20260506220408 44 45 1.7 5.2 0.00 0.00 0.00 61 1013.0
20260506215908 44 90 1.7 6.1 0.00 0.00 0.00 61 1012.9
20260506215408 44 68 1.7 4.3 0.00 0.00 0.00 63 1012.8
20260506214838 45 112 1.7 6.1 0.00 0.00 0.00 61 1012.8
20260506214338 45 68 1.7 4.3 0.00 0.00 0.00 61 1012.9
20260506213808 46 45 0.9 4.3 0.00 0.00 0.00 61 1012.8
20260506213307 45 90 1.7 5.2 0.00 0.00 0.00 60 1012.7
20260506212808 46 68 1.7 4.3 0.00 0.00 0.00 61 1012.7
20260506212237 45 68 1.7 4.3 0.00 0.00 0.00 62 1012.8
20260506211707 45 45 2.6 4.3 0.00 0.00 0.00 61 1012.7
20260506211208 45 68 1.7 4.3 0.00 0.00 0.00 61 1012.7
20260506210707 45 45 2.6 6.1 0.00 0.00 0.00 61 1012.7
20260506210137 45 45 2.6 5.2 0.00 0.00 0.00 60 1012.6
20260506205637 46 68 0.9 3.5 0.00 0.00 0.00 58 1012.6